Location: Unspecified
(0.0000°N, 0.0000°E)
Time: 10:35:44
(UTC+00:00)

XW-2F - Pass Details

Date: 15 December 2017
Orbit: 506 x 528 km, 97.5° (Epoch: 21 January)

Event Time Altitude Azimuth Distance (km) Brightness Sun altitude
Rises 18:16:31 0° 188° (S) 2,614 ? -4.9°
Reaches altitude 10° 18:18:50 10° 201° (SSW) 1,729 ? -5.4°
Maximum altitude 18:21:59 26° 259° (WSW) 1,024 ? -6.1°
Drops below altitude 10° 18:25:10 10° 317° (NW) 1,732 ? -6.8°
Sets 18:27:29 0° 330° (NNW) 2,619 ? -7.4°
